Location: Newark
(13.8117°N, 3.6025°W)
Time: 04:02:03
(UTC+00:00)

Vanguard 2 - Pass Details

Date: 03 September 2019
Orbit: 554 x 2937 km, 32.9° (Epoch: 21 October)

Event Time Altitude Azimuth Distance (km) Brightness Sun altitude
Rises 08:35:28 0° 275° (W) 3,173 10.2 36.1°
Reaches altitude 10° 08:39:00 10° 298° (WNW) 2,001 9.3 36.9°
Maximum altitude 08:41:37 15° 335° (NNW) 1,564 9.1 37.6°
Drops below altitude 10° 08:44:03 10° 13° (NNE) 1,823 9.7 38.2°
Sets 08:47:02 0° 38° (NE) 2,733 10.8 38.9°
